PA3EUZ Weather Reports


time (UTC)temp
F
wind
direction
speed
knots
gust
knots
rain 1hr
in
rain 24hr
in
rain mn
in
humidity
%
barometer
mb
20260507161516 59 0.0 0.9 0.00 0.00 0.00 66 1016.3
20260507160016 59 0.0 0.9 0.00 0.00 0.00 64 1016.3
20260507154536 59 0.0 4.3 0.00 0.00 0.00 66 1016.2
20260507153016 59 0.0 3.5 0.00 0.00 0.00 63 1016.2
20260507151516 59 0.0 0.0 0.00 0.00 0.00 58 1016.2
20260507150016 59 0.0 0.0 0.00 0.00 0.00 57 1016.1
20260507144516 59 0.0 0.0 0.00 0.00 0.00 58 1016.1
20260507143016 59 0.0 0.0 0.00 0.00 0.00 58 1016.1
20260507141536 60 0.0 3.5 0.00 0.00 0.00 57 1016.1
20260507140016 60 0.0 4.3 0.00 0.00 0.00 56 1016.3
20260507134516 61 0.0 3.5 0.00 0.00 0.00 54 1016.3
20260507133016 61 0.0 2.6 0.00 0.00 0.00 56 1016.4
20260507131516 61 0.0 0.9 0.00 0.00 0.00 56 1016.3
20260507130056 60 0.0 0.9 0.00 0.00 0.00 57 1016.3
20260507124516 60 0.0 0.0 0.00 0.00 0.00 58 1016.3
20260507123016 60 293 0.9 4.3 0.00 0.00 0.00 57 1016.3
20260507121516 61 293 0.9 3.5 0.00 0.00 0.00 57 1016.3
20260507120016 61 0.0 3.5 0.00 0.00 0.00 58 1016.2
20260507114516 60 315 0.9 2.6 0.00 0.00 0.00 56 1016.2
20260507113016 60 293 0.9 3.5 0.00 0.00 0.00 59 1016.2
20260507111516 60 293 1.7 5.2 0.00 0.00 0.00 62 1016.3
20260507110016 60 0.0 3.5 0.00 0.00 0.00 61 1016.4
20260507104516 60 338 0.9 6.1 0.00 0.00 0.00 60 1016.5
20260507103016 59 0.0 2.6 0.00 0.00 0.00 62 1016.4
20260507101516 60 0 0.9 3.5 0.00 0.00 0.00 59 1016.4
20260507100016 61 23 0.9 3.5 0.00 0.00 0.00 57 1016.3
20260507094516 61 0.0 6.1 0.00 0.00 0.00 57 1016.3
20260507093016 60 90 0.9 6.1 0.00 0.00 0.00 58 1016.2
20260507091516 60 90 0.9 7.0 0.00 0.00 0.00 62 1016.1
20260507090016 59 68 0.9 5.2 0.00 0.00 0.00 63 1016.1
20260507084516 58 23 0.9 6.1 0.00 0.00 0.00 65 1016.0
20260507083016 58 0.0 3.5 0.00 0.00 0.00 67 1016.1
20260507081516 57 68 0.9 7.0 0.00 0.00 0.00 68 1016.1
20260507080016 56 90 0.9 5.2 0.00 0.00 0.00 70 1016.0
20260507074516 57 45 0.9 3.5 0.00 0.00 0.00 69 1015.9
20260507073016 55 0.0 3.5 0.00 0.00 0.00 72 1015.9
20260507071516 54 0.0 3.5 0.00 0.00 0.00 76 1015.9
20260507070016 53 68 0.9 3.5 0.00 0.00 0.00 74 1015.8
20260507064556 52 68 0.9 7.0 0.00 0.00 0.00 78 1015.8
20260507063016 50 68 0.9 5.2 0.00 0.00 0.00 80 1015.7
20260507061538 49 0.0 0.9 0.00 0.00 0.00 82 1015.5
20260507060018 49 0.0 1.7 0.00 0.00 0.00 83 1015.5
20260507054518 48 0.0 0.9 0.00 0.00 0.00 84 1015.4
20260507053021 47 0.0 2.6 0.00 0.00 0.00 85 1015.3
20260507051538 47 0.0 3.5 0.00 0.00 0.00 87 1015.0
20260507050018 46 0.0 3.5 0.00 0.00 0.00 88 1014.9
20260507044518 46 0.0 0.9 0.00 0.00 0.00 89 1014.7
20260507043018 46 0.0 0.0 0.00 0.00 0.00 89 1014.6
20260507041518 47 0.0 0.0 0.00 0.00 0.00 89 1014.4
20260507040018 47 0.0 0.0 0.00 0.00 0.00 88 1014.3
20260507034538 47 0.0 0.0 0.00 0.00 0.00 88 1014.3
20260507033018 47 0.0 0.0 0.00 0.00 0.00 88 1014.2
20260507031538 48 0.0 0.9 0.00 0.00 0.00 87 1014.0
20260507030018 48 0.0 1.7 0.00 0.00 0.00 87 1014.0
20260507024518 48 0.0 1.7 0.00 0.00 0.00 86 1014.0
20260507023037 48 0.0 0.0 0.00 0.00 0.00 85 1013.9
20260507021538 49 0.0 0.9 0.00 0.00 0.00 84 1013.8
20260507020018 49 0.0 2.6 0.00 0.00 0.00 83 1013.7
20260507014518 50 0.0 2.6 0.00 0.00 0.00 83 1013.5
20260507013018 50 0.0 0.9 0.00 0.00 0.00 82 1013.6
20260507011538 50 0.0 0.0 0.00 0.00 0.00 82 1013.6
20260507010017 50 0.0 0.9 0.00 0.00 0.00 81 1013.5
20260507004518 50 0.0 0.0 0.00 0.00 0.00 81 1013.4
20260507003018 50 0.0 2.6 0.00 0.00 0.00 80 1013.4
20260507001518 50 0.0 0.0 0.00 0.00 0.00 80 1013.3
20260507000017 50 0.0 0.0 0.00 0.00 0.00 80 1013.3
20260506234518 50 0.0 0.0 0.00 0.00 0.00 79 1013.3
20260506233037 51 0.0 0.0 0.00 0.00 0.00 79 1013.2
20260506231518 51 0.0 0.0 0.00 0.00 0.00 78 1013.0
20260506230017 51 0.0 0.0 0.00 0.00 0.00 79 1013.0
20260506224518 51 0.0 0.0 0.00 0.00 0.00 78 1012.9
20260506223018 51 0.0 0.0 0.00 0.00 0.00 78 1012.9
20260506221538 52 0.0 0.0 0.00 0.00 0.00 77 1012.8
20260506220018 52 0.0 0.0 0.00 0.00 0.00 76 1012.8
20260506214516 52 0.0 0.0 0.00 0.00 0.00 75 1012.7
20260506213017 52 0.0 0.0 0.00 0.00 0.00 73 1012.6
20260506211516 53 0.0 0.0 0.00 0.00 0.00 71 1012.5
20260506210037 53 0.0 0.0 0.00 0.00 0.00 70 1012.4
20260506204516 53 0.0 2.6 0.00 0.00 0.00 69 1012.2
20260506203036 53 0.0 0.0 0.00 0.00 0.00 69 1012.1
20260506201516 53 0.0 0.0 0.00 0.00 0.00 68 1012.1
20260506200016 53 0.0 0.0 0.00 0.00 0.00 67 1012.0
20260506194536 53 0.0 0.0 0.00 0.00 0.00 66 1011.8
20260506193017 54 0.0 0.0 0.00 0.00 0.00 66 1011.7
20260506191556 54 0.0 0.0 0.00 0.00 0.00 64 1011.6
20260506190017 54 0.0 5.2 0.00 0.00 0.00 64 1011.4
20260506184516 54 113 0.9 6.1 0.00 0.00 0.00 65 1011.2
20260506183016 54 90 1.7 7.8 0.00 0.00 0.00 64 1011.1
20260506181536 54 90 1.7 7.8 0.00 0.00 0.00 64 1011.0
20260506180016 55 68 1.7 7.8 0.00 0.00 0.00 63 1010.7
20260506174516 55 68 1.7 7.0 0.00 0.00 0.00 62 1010.6
20260506173036 56 68 1.7 11.3 0.00 0.00 0.00 61 1010.4
20260506171516 56 68 2.6 12.2 0.00 0.00 0.00 59 1010.2
20260506170016 57 45 2.6 8.7 0.00 0.00 0.00 58 1010.1
20260506164516 58 45 3.5 10.4 0.00 0.00 0.00 56 1010.0
20260506163016 59 68 4.3 12.2 0.00 0.00 0.00 53 1009.9